[[{"header":{"parameterUnit":"m.s-1","parameterCategory":1,"la1":30.2991,"la2":30.254,"lo1":-89.0895,"lo2":-89.0444,"dy":0.0017,"dx":0.0017,"nx":28,"ny":28,"refTime":"2024-07-21T21:00:00:Z","depth":0,"parameterNumber":2,"parameterNumberName":"U-component_of_WINDS"},"data":[0,0,0,0,0,0,0,0,0,0,0,0,0,0,0,0,0,0,0,0,0,0,0,0,0,0,0,0,0,0,0,0,0,0,0,0,0,0,0,0,0,0,0,0,0,0,0,0,0,0,0,0,0,0,0,0,0,0,0.618,0.6179,0,0.6106,0.6105,0.6104,0.6049,0.6049,0.6048,0.6048,0.5972,0.597,0.5968,0,0,0,0,0,0,0,0,0,0,0,0,0,0.6272,0.627,0.618,0.6179,0.6178,0.6106,0.6105,0.6104,0.6049,0.6049,0.6048,0.6048,0.5972,0.597,0.5968,0,0,0,0,0,0,0,0,0,0,0,0,0,0.6218,0.627,0.618,0.6142,0.6138,0.6106,0.6105,0.6104,0.605,0.6049,0.6048,0.6047,0.5973,0.597,0.5968,0.5968,0,0,0.5961,0.596,0,0,0,0,0,0,0,0,0.6221,0.6215,0.6149,0.6145,0.614,0.6086,0.6109,0.6058,0.605,0.6083,0.6048,0.6047,0.601,0.6005,0.5992,0.5964,0.5961,0.5961,0.5959,0.5958,0.5957,0,0,0,0,0,0,0,0.6225,0.6218,0.6151,0.6148,0.6143,0.6128,0.612,0.6099,0.6052,0.608,0.6076,0.6068,0.6008,0.5995,0.599,0.596,0.5961,0.5959,0.5957,0.5956,0.5924,0.5925,0,0,0,0,0,0,0.6235,0.6221,0.6153,0.6149,0.618,0.6127,0.6118,0.6104,0.6052,0.6043,0.6069,0.6066,0.5999,0.5993,0.5987,0.5981,0.5958,0.5956,0.5955,0.5924,0.5925,0.5925,0,0,0,0,0,0,0.6237,0.6229,0.6156,0.6184,0.6173,0.6126,0.6112,0.6103,0.609,0.6043,0.6034,0.6065,0.5998,0.5991,0.5972,0.5978,0.5955,0.5953,0.5923,0.5924,0.5925,0.5971,0,0,0,0,0,0,0.624,0.6231,0.6231,0.6184,0.6172,0.6143,0.6112,0.6102,0.6086,0.6082,0.6037,0.6029,0.5997,0.5976,0.597,0.5974,0.5951,0.5922,0.5924,0.5925,0.5969,0.5973,0.5977,0,0,0,0,0,0.6243,0.6247,0.6231,0.6223,0.6171,0.6144,0.6137,0.6101,0.6087,0.6086,0.6055,0.603,0.5979,0.5975,0.5967,0.5971,0.5922,0.5923,0.5925,0.5967,0.5972,0.5977,0,0,0,0,0,0,0.6296,0.6241,0.6222,0.6211,0.6183,0.6135,0.6133,0.6109,0.6083,0.608,0.6036,0.6027,0.6012,0.599,0.5987,0.5966,0.5947,0.5947,0.5981,0.5986,0.5991,0.5996,0.5949,0,0,0,0,0,0.6307,0.6289,0.6241,0.6236,0.6223,0.618,0.6167,0.6142,0.611,0.6098,0.6066,0.6036,0.6013,0.5999,0.5975,0.5965,0.5953,0.5964,0.5968,0.5972,0.5972,0.5962,0.5966,0.5929,0.5929,0.5929,0,0,0.6328,0.6295,0.6287,0.6246,0.6221,0.6203,0.6171,0.6154,0.6139,0.6095,0.6075,0.6051,0.6014,0.6,0.5992,0.5981,0.5979,0.5974,0.5977,0.5975,0.5964,0.5967,0.597,0.593,0.593,0.593,0,0,0.6357,0.6331,0.6323,0.6298,0.626,0.6231,0.6229,0.6185,0.6166,0.6146,0.6111,0.6094,0.6055,0.603,0.6012,0.6029,0.6003,0.6022,0.6044,0.6035,0.6038,0.604,0.6044,0.6046,0.6023,0.6023,0.6023,0,0.6387,0.636,0.6321,0.6305,0.6287,0.6246,0.6236,0.6214,0.6171,0.6158,0.6147,0.6096,0.6069,0.6046,0.605,0.6038,0.6032,0.6027,0.6041,0.6043,0.6044,0.6047,0.6049,0.6025,0.6025,0.6025,0.6024,0,0.6398,0.6379,0.6377,0.6335,0.6316,0.6304,0.6263,0.6248,0.6224,0.6196,0.6174,0.614,0.6107,0.61,0.6077,0.6074,0.6068,0.6049,0.6028,0.6051,0.6052,0.6054,0.6029,0.6028,0.6027,0.6026,0,0,0.6459,0.6394,0.6394,0.6373,0.6328,0.6312,0.6296,0.6264,0.6251,0.6223,0.6207,0.6174,0.6156,0.6136,0.6109,0.6101,0.6114,0.6083,0.6082,0.6088,0.6105,0.6118,0.612,0.6097,0.6097,0.6097,0.6107,0,0.6479,0.6449,0.6413,0.6395,0.6376,0.6335,0.6321,0.6291,0.6264,0.6243,0.6213,0.619,0.6169,0.6156,0.6147,0.6114,0.6116,0.6113,0.6081,0.608,0.6089,0.6122,0.6136,0.6147,0.6108,0.6108,0.6108,0,0.6498,0.647,0.645,0.6404,0.6394,0.6383,0.6349,0.633,0.6294,0.6275,0.6251,0.6222,0.6201,0.6184,0.6154,0.6153,0.6137,0.6119,0.6119,0.6113,0.6095,0.6115,0.615,0.6151,0.6109,0.6109,0.6109,0,0.6542,0.6499,0.6481,0.6465,0.6411,0.6403,0.638,0.6344,0.6326,0.6296,0.6283,0.6252,0.6234,0.621,0.6172,0.6163,0.6146,0.6126,0.6128,0.6129,0.6125,0.6126,0.6156,0.6118,0.6118,0.6118,0.6118,0,0.6567,0.6556,0.6499,0.6488,0.6473,0.6432,0.6418,0.6392,0.6359,0.6341,0.6304,0.6288,0.624,0.6217,0.6187,0.6166,0.6159,0.6142,0.6133,0.6144,0.6146,0.6132,0.613,0.6118,0.6118,0.6118,0.6118,0,0.6612,0.6574,0.6551,0.6502,0.6489,0.648,0.6437,0.6424,0.6394,0.6371,0.6364,0.6317,0.6288,0.6248,0.6208,0.6188,0.617,0.6158,0.6182,0.6177,0.618,0.618,0.6202,0.6202,0.6166,0.6166,0.6166,0,0.663,0.662,0.6569,0.6554,0.6532,0.6509,0.649,0.6449,0.643,0.6387,0.6378,0.6347,0.6319,0.6274,0.6236,0.6204,0.619,0.62,0.6185,0.6195,0.6188,0.6188,0.6186,0.6204,0.6204,0.6205,0.6205,0,0.6665,0.6646,0.6621,0.6588,0.6566,0.6538,0.6509,0.6498,0.645,0.6431,0.6401,0.6379,0.6337,0.6305,0.6267,0.6242,0.6215,0.621,0.6209,0.6219,0.6232,0.6223,0.619,0.621,0.6209,0.6209,0.6209,0.6209,0.6695,0.6684,0.6646,0.6618,0.6591,0.6564,0.6548,0.6516,0.649,0.6452,0.6429,0.6399,0.6361,0.6308,0.6284,0.6259,0.6248,0.6247,0.6246,0.6246,0.6248,0.6237,0.6252,0.6252,0.6252,0.6252,0.6252,0,0.6727,0.67,0.6674,0.6634,0.6611,0.6588,0.6553,0.6536,0.651,0.6477,0.645,0.6414,0.6383,0.6342,0.6307,0.6295,0.6281,0.6287,0.6287,0.6281,0.6261,0.6265,0.6298,0.6298,0.6298,0.6298,0.6298,0.6298,0.674,0.6718,0.6695,0.6659,0.6632,0.6602,0.6584,0.6558,0.6531,0.6493,0.6467,0.644,0.6403,0.6365,0.6334,0.6323,0.6311,0.632,0.6305,0.6287,0.6282,0.6278,0.6282,0.6318,0.6318,0.6326,0.6326,0.6326]},{"header":{"parameterUnit":"m.s-1","parameterCategory":1,"la1":30.2991,"la2":30.254,"lo1":-89.0895,"lo2":-89.0444,"dy":0.0017,"dx":0.0017,"nx":28,"ny":28,"refTime":"2024-07-21T21:00:00:Z","depth":0,"parameterNumber":3,"parameterNumberName":"V-component_of_WINDS"},"data":[0,0,0,0,0,0,0,0,0,0,0,0,0,0,0,0,0,0,0,0,0,0,0,0,0,0,0,0,0,0,0,0,0,0,0,0,0,0,0,0,0,0,0,0,0,0,0,0,0,0,0,0,0,0,0,0,0,0,3.4862,3.4863,0,3.4953,3.4954,3.4955,3.4925,3.4923,3.4921,3.4919,3.5008,3.5012,3.5016,0,0,0,0,0,0,0,0,0,0,0,0,0,3.4657,3.4661,3.4862,3.4863,3.4864,3.4952,3.4954,3.4955,3.4925,3.4923,3.4921,3.4918,3.5007,3.5012,3.5017,0,0,0,0,0,0,0,0,0,0,0,0,0,3.4747,3.4663,3.4862,3.486,3.4861,3.4952,3.4954,3.4955,3.4926,3.4923,3.492,3.4917,3.5005,3.5011,3.5017,3.5114,0,0,3.5036,3.5039,0,0,0,0,0,0,0,0,3.4742,3.4754,3.4859,3.4861,3.4862,3.4925,3.4914,3.5008,3.4927,3.4901,3.4919,3.4916,3.4982,3.499,3.5014,3.5119,3.5122,3.5037,3.5041,3.5044,3.5045,0,0,0,0,0,0,0,3.4736,3.475,3.4898,3.4861,3.4862,3.4853,3.4862,3.4932,3.4957,3.4903,3.4901,3.4912,3.4982,3.5008,3.5015,3.5124,3.5037,3.5042,3.5046,3.5049,3.5308,3.5311,0,0,0,0,0,0,3.4729,3.4745,3.4895,3.49,3.4793,3.4859,3.487,3.4907,3.4956,3.4961,3.4915,3.4911,3.4998,3.5008,3.5018,3.5133,3.5043,3.5049,3.5053,3.5305,3.5309,3.5312,0,0,0,0,0,0,3.4725,3.4743,3.4891,3.4822,3.4841,3.4866,3.4908,3.4911,3.4936,3.4965,3.4969,3.4937,3.4996,3.501,3.509,3.5135,3.5052,3.5058,3.5302,3.5306,3.5311,3.5363,0,0,0,0,0,0,3.4719,3.4742,3.4781,3.4824,3.4844,3.4963,3.4911,3.4914,3.4947,3.4943,3.4986,3.4991,3.4995,3.5081,3.5096,3.5142,3.5063,3.5298,3.5304,3.5309,3.5358,3.5369,3.5379,0,0,0,0,0,3.4712,3.4792,3.4783,3.4801,3.4894,3.4966,3.4978,3.4983,3.4951,3.4989,3.5007,3.4989,3.5128,3.5089,3.5107,3.5155,3.5295,3.5302,3.5309,3.5353,3.5367,3.5379,0,0,0,0,0,0,3.4753,3.4798,3.4788,3.4884,3.4922,3.4961,3.5009,3.4998,3.5044,3.5038,3.504,3.505,3.5132,3.5152,3.5108,3.525,3.5206,3.5217,3.5234,3.5248,3.5258,3.5251,3.5068,0,0,0,0,0,3.4773,3.483,3.4865,3.4947,3.4966,3.4984,3.5016,3.5016,3.5055,3.507,3.5094,3.5131,3.5182,3.5216,3.5266,3.536,3.5368,3.5402,3.5413,3.5421,3.543,3.5478,3.5493,3.5336,3.5336,3.5335,0,0,3.4816,3.4847,3.4883,3.4956,3.4985,3.5041,3.4998,3.506,3.5101,3.5079,3.5156,3.5175,3.5216,3.5303,3.5343,3.5322,3.5475,3.543,3.5437,3.5441,3.5487,3.5502,3.5515,3.534,3.5339,3.5339,0,0,3.4921,3.4952,3.5022,3.5051,3.5096,3.5107,3.5124,3.5164,3.5176,3.5254,3.5237,3.5285,3.5375,3.5403,3.543,3.5543,3.5527,3.5558,3.5614,3.5661,3.5674,3.5684,3.5722,3.5736,3.5567,3.5568,3.5568,0,3.4968,3.5054,3.5059,3.5122,3.5153,3.5135,3.5204,3.5232,3.529,3.5311,3.5287,3.5397,3.5423,3.5515,3.5542,3.5565,3.5582,3.5553,3.5672,3.5683,3.5693,3.5729,3.5743,3.5571,3.5571,3.557,3.557,0,3.5107,3.5167,3.5218,3.5274,3.5311,3.5377,3.5389,3.5425,3.5421,3.5434,3.5511,3.5542,3.5595,3.5618,3.5615,3.5708,3.5694,3.5671,3.5627,3.5711,3.5745,3.5759,3.5576,3.5575,3.5574,3.5573,0,0,3.5243,3.5299,3.5317,3.5341,3.5388,3.5433,3.5496,3.5549,3.5579,3.5618,3.567,3.5744,3.5723,3.5752,3.5752,3.5794,3.5877,3.5765,3.5766,3.5783,3.5979,3.5994,3.601,3.5868,3.587,3.5872,3.5974,0,3.535,3.5463,3.5467,3.5569,3.5622,3.5605,3.5659,3.5692,3.5706,3.5751,3.5764,3.5817,3.5786,3.5803,3.5843,3.5859,3.5916,3.5852,3.5912,3.5915,3.5901,3.6028,3.6046,3.6141,3.5988,3.599,3.5992,0,3.5491,3.5535,3.5642,3.5678,3.57,3.575,3.5797,3.5841,3.5877,3.5883,3.5915,3.5908,3.597,3.5925,3.6008,3.5964,3.5989,3.6,3.6003,3.6008,3.5957,3.6034,3.6171,3.6185,3.6013,3.6011,3.601,0,3.5576,3.5662,3.5736,3.5757,3.5802,3.5836,3.5856,3.5889,3.5919,3.596,3.5979,3.6026,3.6052,3.6087,3.6092,3.6059,3.6174,3.613,3.6179,3.6178,3.6203,3.6201,3.6344,3.6222,3.6222,3.6222,3.6221,0,3.5694,3.576,3.5774,3.582,3.5891,3.5894,3.5965,3.5981,3.601,3.6057,3.6045,3.6088,3.6093,3.6137,3.6141,3.6207,3.6219,3.6224,3.6224,3.6224,3.6224,3.624,3.6232,3.6225,3.6225,3.6224,3.6223,0,3.5801,3.5813,3.5893,3.5928,3.5938,3.5989,3.6017,3.606,3.6071,3.6129,3.6143,3.616,3.6211,3.6219,3.628,3.6282,3.6361,3.6355,3.6349,3.6347,3.6394,3.6389,3.6551,3.6572,3.6438,3.644,3.6441,0,3.5875,3.5925,3.5965,3.5995,3.6017,3.6067,3.6097,3.6101,3.6133,3.6176,3.6212,3.6262,3.6302,3.6384,3.64,3.6445,3.6439,3.6492,3.6445,3.6443,3.6436,3.6433,3.6436,3.6501,3.6502,3.6504,3.6504,0,3.6005,3.6008,3.6053,3.61,3.6137,3.6174,3.6209,3.6234,3.6242,3.6278,3.633,3.6361,3.6422,3.647,3.6514,3.6532,3.6519,3.6519,3.6532,3.6532,3.6526,3.6527,3.6371,3.6515,3.6514,3.6513,3.6513,3.6512,3.6096,3.6138,3.6172,3.6222,3.6248,3.628,3.6321,3.6336,3.638,3.643,3.6429,3.6486,3.6517,3.6574,3.6595,3.6637,3.662,3.664,3.6644,3.6649,3.6652,3.652,3.6646,3.6645,3.6645,3.6645,3.6645,0,3.6222,3.6243,3.6289,3.6338,3.6376,3.6361,3.6398,3.6431,3.6481,3.6511,3.655,3.6608,3.6655,3.6674,3.6719,3.6749,3.6743,3.676,3.6757,3.676,3.6666,3.665,3.6763,3.6763,3.6763,3.6763,3.6763,3.6763,3.6293,3.6363,3.6369,3.645,3.647,3.6525,3.6547,3.6576,3.66,3.6665,3.6704,3.6716,3.6741,3.6787,3.6828,3.6832,3.6848,3.6867,3.6868,3.678,3.6768,3.6756,3.674,3.6871,3.6871,3.6958,3.6959,3.696]}]]